When you browse on this site, cookies collect data to enhance your experience and personalize the content and advertising you see.
Visit our Privacy Policy to learn more. By continuing to use the site, you agree to this use of cookies and data.
  • în România
  • Lista ţărilor
  • Pe 7 zile
  • Temperatura apei
  • Hartă satelitară
  • Meteo pe hartă
  • Widget-uri
  • user-avatar
    Intrare

    Meteo pe oră la Łęczyca

    Astăzi, 21 Aprilie, Duminică

    Timp Temperatura Precipitaţii Vânt Presiune Umiditate
    00:00 +7°C° 0 mm 3 m/s 761 mmHg 69%
    01:00 +6°C° 0 mm 2 m/s 761 mmHg 71%
    02:00 +6°C° 0 mm 2 m/s 760 mmHg 72%
    03:00 +5°C° 0 mm 2 m/s 760 mmHg 74%
    04:00 +5°C° 0 mm 2 m/s 760 mmHg 75%
    05:00 +5°C° 0 mm 3 m/s 760 mmHg 72%
    06:00 +7°C° 0 mm 3 m/s 760 mmHg 68%
    07:00 +8°C° 0 mm 3 m/s 760 mmHg 65%
    08:00 +10°C° 0 mm 3 m/s 759 mmHg 58%
    09:00 +12°C° 0 mm 3 m/s 759 mmHg 52%
    10:00 +14°C° 0 mm 3 m/s 759 mmHg 45%
    11:00 +16°C° 0 mm 3 m/s 758 mmHg 43%
    12:00 +17°C° 0 mm 3 m/s 758 mmHg 41%
    13:00 +18°C° 0 mm 3 m/s 757 mmHg 38%
    14:00 +18°C° 0 mm 3 m/s 757 mmHg 40%
    15:00 +18°C° 0 mm 4 m/s 756 mmHg 42%
    16:00 +17°C° 0 mm 5 m/s 756 mmHg 44%
    17:00 +16°C° 0 mm 5 m/s 756 mmHg 47%
    18:00 +15°C° 0 mm 5 m/s 755 mmHg 51%
    19:00 +14°C° 0 mm 5 m/s 755 mmHg 54%
    20:00 +12°C° 0 mm 4 m/s 755 mmHg 64%
    21:00 +9°C° 0 mm 3 m/s 756 mmHg 74%
    22:00 +7°C° 0 mm 3 m/s 756 mmHg 84%
    23:00 +5°C° 0 mm 3 m/s 756 mmHg 84%

    Mâine, 22 Aprilie, Luni

    Timp Temperatura Precipitaţii Vânt Presiune Umiditate
    00:00 +6°C° 0 mm 2 m/s 756 mmHg 85%
    01:00 +5°C° 0 mm 2 m/s 755 mmHg 85%
    02:00 +5°C° 0 mm 2 m/s 755 mmHg 83%
    03:00 +4°C° 0 mm 2 m/s 755 mmHg 81%
    04:00 +3°C° 0 mm 3 m/s 755 mmHg 80%
    05:00 +4°C° 0 mm 3 m/s 755 mmHg 79%
    06:00 +5°C° 0 mm 3 m/s 756 mmHg 79%
    07:00 +6°C° 0 mm 4 m/s 756 mmHg 79%
    08:00 +8°C° 0 mm 5 m/s 756 mmHg 76%
    09:00 +9°C° 0 mm 5 m/s 756 mmHg 74%
    10:00 +10°C° 0 mm 6 m/s 756 mmHg 71%
    11:00 +11°C° 0 mm 6 m/s 756 mmHg 68%
    12:00 +12°C° 0 mm 7 m/s 756 mmHg 65%
    13:00 +14°C° 0 mm 7 m/s 755 mmHg 63%
    14:00 +14°C° 0 mm 7 m/s 755 mmHg 60%
    15:00 +15°C° 0 mm 6 m/s 755 mmHg 58%
    16:00 +16°C° 0 mm 6 m/s 755 mmHg 56%
    17:00 +15°C° 0 mm 6 m/s 755 mmHg 60%
    18:00 +13°C° 0 mm 6 m/s 755 mmHg 65%
    19:00 +11°C° 0 mm 6 m/s 755 mmHg 69%
    20:00 +10°C° 0 mm 6 m/s 755 mmHg 66%
    21:00 +10°C° 0 mm 6 m/s 755 mmHg 63%
    22:00 +9°C° 0 mm 6 m/s 756 mmHg 59%
    23:00 +9°C° 0 mm 7 m/s 756 mmHg 59%

    Poimâine, 23 Aprilie, Marţi

    Timp Temperatura Precipitaţii Vânt Presiune Umiditate
    00:00 +8°C° 0 mm 7 m/s 755 mmHg 58%
    01:00 +8°C° 0 mm 7 m/s 755 mmHg 58%
    02:00 +6°C° 0 mm 8 m/s 755 mmHg 58%
    03:00 +6°C° 0 mm 8 m/s 755 mmHg 59%
    04:00 +6°C° 0 mm 8 m/s 754 mmHg 60%
    05:00 +6°C° 0 mm 9 m/s 754 mmHg 61%
    06:00 +7°C° 0 mm 9 m/s 754 mmHg 61%
    07:00 +7°C° 0 mm 9 m/s 754 mmHg 61%
    08:00 +9°C° 0 mm 10 m/s 754 mmHg 58%
    09:00 +11°C° 0 mm 10 m/s 753 mmHg 55%
    10:00 +13°C° 0 mm 10 m/s 753 mmHg 53%
    11:00 +14°C° 0 mm 10 m/s 753 mmHg 50%
    12:00 +16°C° 0 mm 10 m/s 752 mmHg 48%
    13:00 +17°C° 0 mm 11 m/s 752 mmHg 45%
    14:00 +17°C° 0 mm 10 m/s 752 mmHg 46%
    15:00 +18°C° 0 mm 10 m/s 751 mmHg 47%
    16:00 +18°C° 0 mm 10 m/s 751 mmHg 48%
    17:00 +17°C° 0 mm 9 m/s 751 mmHg 50%
    18:00 +16°C° 0 mm 9 m/s 751 mmHg 52%
    19:00 +13°C° 0 mm 8 m/s 751 mmHg 54%
    20:00 +13°C° 0 mm 9 m/s 751 mmHg 56%
    21:00 +12°C° 0 mm 9 m/s 751 mmHg 58%
    22:00 +11°C° 0 mm 9 m/s 751 mmHg 61%
    23:00 +11°C° 0.3 mm 9 m/s 751 mmHg 63%

    24 Aprilie, Miercuri

    Timp Temperatura Precipitaţii Vânt Presiune Umiditate
    00:00 +11°C° 0.3 mm 8 m/s 751 mmHg 66%
    01:00 +10°C° 0.3 mm 8 m/s 750 mmHg 69%
    02:00 +10°C° 0 mm 8 m/s 750 mmHg 68%
    03:00 +10°C° 0 mm 8 m/s 750 mmHg 67%
    04:00 +10°C° 0 mm 8 m/s 750 mmHg 66%
    05:00 +11°C° 0 mm 7 m/s 750 mmHg 67%
    06:00 +11°C° 0 mm 7 m/s 750 mmHg 69%
    07:00 +12°C° 0 mm 7 m/s 750 mmHg 70%
    08:00 +15°C° 0 mm 7 m/s 750 mmHg 66%
    09:00 +16°C° 0 mm 8 m/s 751 mmHg 61%
    10:00 +18°C° 0 mm 8 m/s 751 mmHg 56%
    11:00 +20°C° 0 mm 7 m/s 751 mmHg 55%
    12:00 +21°C° 0 mm 7 m/s 751 mmHg 53%
    13:00 +22°C° 0 mm 6 m/s 751 mmHg 51%
    14:00 +22°C° 0.2 mm 6 m/s 751 mmHg 53%
    15:00 +22°C° 0.2 mm 5 m/s 751 mmHg 56%
    16:00 +22°C° 0.2 mm 5 m/s 751 mmHg 58%
    17:00 +20°C° 0.2 mm 4 m/s 751 mmHg 63%
    18:00 +19°C° 0.2 mm 4 m/s 751 mmHg 68%
    19:00 +17°C° 0.2 mm 4 m/s 751 mmHg 72%
    20:00 +17°C° 0 mm 4 m/s 752 mmHg 74%
    21:00 +15°C° 0 mm 4 m/s 752 mmHg 75%
    22:00 +14°C° 0 mm 4 m/s 752 mmHg 76%
    23:00 +14°C° 0 mm 4 m/s 752 mmHg 76%

    25 Aprilie, Joi

    Timp Temperatura Precipitaţii Vânt Presiune Umiditate
    00:00 +14°C° 0 mm 4 m/s 752 mmHg 75%
    01:00 +14°C° 0 mm 4 m/s 752 mmHg 75%
    02:00 +14°C° 0 mm 4 m/s 752 mmHg 76%
    03:00 +14°C° 0 mm 4 m/s 752 mmHg 78%
    04:00 +14°C° 0 mm 4 m/s 752 mmHg 79%
    05:00 +15°C° 0 mm 5 m/s 752 mmHg 77%
    06:00 +16°C° 0 mm 5 m/s 752 mmHg 74%
    07:00 +17°C° 0 mm 5 m/s 752 mmHg 72%
    08:00 +19°C° 0 mm 5 m/s 752 mmHg 66%
    09:00 +21°C° 0 mm 5 m/s 752 mmHg 60%
    10:00 +23°C° 0 mm 5 m/s 752 mmHg 53%
    11:00 +23°C° 0 mm 5 m/s 752 mmHg 53%
    12:00 +23°C° 0 mm 5 m/s 752 mmHg 52%
    13:00 +23°C° 0 mm 5 m/s 751 mmHg 52%
    14:00 +23°C° 0 mm 5 m/s 751 mmHg 52%
    15:00 +23°C° 0 mm 4 m/s 751 mmHg 53%
    16:00 +23°C° 0 mm 4 m/s 751 mmHg 53%
    17:00 +22°C° 0 mm 3 m/s 751 mmHg 58%
    18:00 +21°C° 0 mm 3 m/s 751 mmHg 63%
    19:00 +20°C° 0 mm 2 m/s 751 mmHg 67%
    20:00 +19°C° 0 mm 2 m/s 751 mmHg 70%
    21:00 +18°C° 0 mm 3 m/s 751 mmHg 74%
    22:00 +17°C° 0 mm 3 m/s 751 mmHg 77%
    23:00 +17°C° 0 mm 3 m/s 750 mmHg 76%

    26 Aprilie, Vineri

    Timp Temperatura Precipitaţii Vânt Presiune Umiditate
    00:00 +17°C° 0 mm 3 m/s 750 mmHg 74%
    01:00 +17°C° 0 mm 3 m/s 750 mmHg 73%
    02:00 +17°C° 0 mm 3 m/s 749 mmHg 73%
    03:00 +15°C° 0 mm 4 m/s 749 mmHg 73%
    04:00 +15°C° 0 mm 4 m/s 749 mmHg 74%
    05:00 +17°C° 0 mm 4 m/s 749 mmHg 72%
    06:00 +17°C° 0 mm 5 m/s 748 mmHg 70%
    07:00 +19°C° 0 mm 5 m/s 748 mmHg 68%
    08:00 +21°C° 0 mm 5 m/s 748 mmHg 64%
    09:00 +22°C° 0 mm 6 m/s 748 mmHg 60%
    10:00 +23°C° 0 mm 6 m/s 748 mmHg 56%
    11:00 +24°C° 0 mm 6 m/s 748 mmHg 54%
    12:00 +26°C° 0 mm 6 m/s 748 mmHg 53%
    13:00 +26°C° 0 mm 6 m/s 748 mmHg 51%
    14:00 +23°C° 0.4 mm 7 m/s 748 mmHg 59%
    15:00 +22°C° 0.4 mm 8 m/s 748 mmHg 67%
    16:00 +19°C° 0.4 mm 10 m/s 749 mmHg 74%
    17:00 +17°C° 0.2 mm 9 m/s 750 mmHg 76%
    18:00 +15°C° 0.2 mm 8 m/s 751 mmHg 78%
    19:00 +12°C° 0.2 mm 8 m/s 752 mmHg 80%
    20:00 +11°C° 0 mm 7 m/s 753 mmHg 80%
    21:00 +11°C° 0 mm 7 m/s 753 mmHg 80%
    22:00 +10°C° 0 mm 6 m/s 754 mmHg 80%
    23:00 +10°C° 0 mm 6 m/s 754 mmHg 78%
    Arată mai mult